EW7939 Weather Reports


Display with metric or nautical units.
time (UTC)temp
F
wind
direction
speed
MPH
gust
MPH
rain 1hr
in
rain 24hr
in
rain mn
in
humidity
%
barometer
mb
20260508130026 52 228 0.0 2.0 0.00 0.00 0.00 86 1009.1
20260508124529 51 228 0.0 2.0 0.00 0.00 0.00 86 1009.1
20260508123028 50 228 0.0 2.0 0.00 0.00 0.00 86 1009.0
20260508121525 50 228 1.0 3.0 0.00 0.00 0.00 86 1009.0
20260508120023 49 232 1.0 3.0 0.00 0.00 0.00 85 1008.9
20260508114524 49 232 0.0 0.0 0.00 0.00 0.00 85 1009.0
20260508113023 49 232 0.0 0.0 0.00 0.00 0.00 84 1008.9
20260508111522 49 232 0.0 0.0 0.00 0.00 0.00 84 1008.7
20260508110029 49 232 0.0 0.0 0.00 0.00 0.00 82 1008.6
20260508104519 49 232 0.0 0.0 0.00 0.00 0.00 81 1008.8
20260508103035 49 232 0.0 0.0 0.00 0.00 0.00 81 1008.5
20260508101517 50 232 0.0 0.0 0.00 0.00 0.00 79 1008.6
20260508100016 50 232 0.0 0.0 0.00 0.00 0.00 78 1008.5
20260508094512 51 232 0.0 0.0 0.00 0.00 0.00 77 1008.5
20260508093011 51 232 0.0 0.0 0.00 0.00 0.00 77 1008.6
20260508091513 52 232 0.0 0.0 0.00 0.00 0.00 76 1008.5
20260508090007 52 232 0.0 0.0 0.00 0.00 0.00 75 1008.5
20260508084505 53 232 0.0 0.0 0.00 0.00 0.00 74 1008.3
20260508083003 53 232 0.0 2.0 0.00 0.00 0.00 73 1008.5
20260508081500 53 232 1.0 4.0 0.00 0.00 0.00 73 1008.5
20260508074607 54 227 1.0 5.0 0.00 0.00 0.00 73 1008.7
20260508073055 54 227 1.0 6.0 0.00 0.00 0.00 72 1008.9
20260508071553 54 226 0.0 3.0 0.00 0.00 0.00 71 1009.0
20260508070049 55 226 1.0 4.0 0.00 0.00 0.00 71 1009.2
20260508064548 55 223 1.0 5.0 0.00 0.00 0.00 70 1009.3
20260508063050 55 223 1.0 6.0 0.00 0.00 0.00 70 1009.5
20260508061543 56 255 2.0 7.0 0.00 0.00 0.00 70 1009.6
20260508060055 56 244 1.0 6.0 0.00 0.00 0.00 69 1009.8
20260508054611 56 294 1.0 6.0 0.00 0.00 0.00 69 1009.7
20260508053047 56 252 2.0 7.0 0.00 0.00 0.00 68 1009.8
20260508051537 57 248 2.0 7.0 0.00 0.00 0.00 68 1009.9
20260508050032 57 243 2.0 8.0 0.00 0.00 0.00 68 1009.9
20260508044533 57 239 2.0 7.0 0.00 0.00 0.00 67 1010.0
20260508043035 57 229 1.0 6.0 0.00 0.00 0.00 67 1010.0
20260508041530 57 238 2.0 4.0 0.00 0.00 0.00 67 1010.1
20260508040033 57 235 1.0 5.0 0.00 0.00 0.00 67 1010.1
20260508034536 57 219 2.0 5.0 0.00 0.00 0.00 66 1010.0
20260508033033 57 223 0.0 5.0 0.00 0.00 0.00 65 1010.0
20260508031530 58 231 1.0 4.0 0.00 0.00 0.00 65 1009.8
20260508030027 58 237 0.0 4.0 0.00 0.00 0.00 64 1009.7
20260508024527 58 239 1.0 5.0 0.00 0.00 0.00 63 1009.6
20260508023026 59 230 0.0 5.0 0.00 0.00 0.00 62 1009.6
20260508021526 59 232 0.0 3.0 0.00 0.00 0.00 60 1009.5
20260508020025 60 232 0.0 4.0 0.00 0.00 0.00 59 1009.3
20260508014534 61 234 0.0 2.0 0.00 0.00 0.00 57 1009.3
20260508013024 62 234 0.0 2.0 0.00 0.00 0.00 55 1009.4
20260508011523 63 234 0.0 5.0 0.00 0.00 0.00 53 1009.4
20260508010039 64 242 0.0 3.0 0.00 0.00 0.00 52 1009.3
20260508004526 65 246 1.0 7.0 0.00 0.00 0.00 51 1009.3
20260508003022 66 277 4.0 10.0 0.00 0.00 0.00 50 1009.4
20260508001521 66 252 5.0 9.0 0.00 0.00 0.00 48 1009.3
20260508000019 67 257 6.0 15.0 0.00 0.00 0.00 47 1009.4
20260507234519 68 253 6.0 12.0 0.00 0.00 0.00 47 1009.6
20260507233017 68 264 5.0 14.0 0.00 0.00 0.00 48 1009.8
20260507231516 66 214 4.0 8.0 0.00 0.00 0.00 50 1009.9
20260507230019 66 284 6.0 12.0 0.00 0.00 0.00 47 1010.1
20260507224517 67 259 4.0 13.0 0.00 0.00 0.00 48 1010.0
20260507223013 68 236 8.0 13.0 0.00 0.00 0.00 47 1010.1
20260507221512 69 250 6.0 16.0 0.00 0.00 0.00 44 1010.2
20260507220010 69 244 9.0 14.0 0.00 0.00 0.00 45 1010.2
20260507214508 69 183 5.0 16.0 0.00 0.00 0.00 47 1010.2
20260507213005 69 260 8.0 19.0 0.00 0.00 0.00 45 1010.3
20260507211503 68 244 8.0 19.0 0.00 0.00 0.00 48 1010.4
20260507210105 67 252 7.0 17.0 0.00 0.00 0.00 45 1010.6
20260507204601 67 265 11.0 18.0 0.00 0.00 0.00 46 1010.7
20260507203100 67 277 12.0 19.0 0.00 0.00 0.00 44 1011.0
20260507201555 67 232 9.0 19.0 0.00 0.00 0.00 45 1011.1
20260507200051 67 278 9.0 15.0 0.00 0.00 0.00 46 1011.4
20260507194550 67 281 6.0 15.0 0.00 0.00 0.00 50 1011.7
20260507193046 66 255 11.0 23.0 0.00 0.00 0.00 47 1012.0
20260507191544 66 259 10.0 18.0 0.00 0.00 0.00 48 1012.2
20260507190042 65 260 8.0 15.0 0.00 0.00 0.00 49 1012.3
20260507184540 65 281 8.0 24.0 0.00 0.00 0.00 51 1012.3
20260507183046 65 245 8.0 15.0 0.00 0.00 0.00 50 1012.5
20260507181540 64 263 8.0 19.0 0.00 0.00 0.00 52 1012.5
20260507180035 63 264 5.0 16.0 0.00 0.00 0.00 53 1012.8
20260507174529 63 236 8.0 14.0 0.00 0.00 0.00 53 1013.0
20260507173027 62 267 9.0 18.0 0.00 0.00 0.00 53 1013.4
20260507171525 62 240 9.0 17.0 0.00 0.00 0.00 55 1013.5
20260507170023 62 245 7.0 18.0 0.00 0.00 0.00 54 1013.7
20260507164522 63 281 6.0 14.0 0.00 0.00 0.00 53 1013.9
20260507163019 62 288 9.0 16.0 0.00 0.00 0.00 54 1014.2
20260507161526 61 246 8.0 18.0 0.00 0.00 0.00 54 1014.2
20260507160036 62 288 9.0 22.0 0.00 0.00 0.00 54 1014.3
20260507154516 62 202 7.0 16.0 0.00 0.00 0.00 56 1014.3
20260507153011 61 250 8.0 16.0 0.00 0.00 0.00 58 1014.4
20260507151508 60 253 8.0 16.0 0.00 0.00 0.00 60 1014.4
20260507150006 59 278 5.0 18.0 0.00 0.00 0.00 61 1014.6
20260507144501 58 248 8.0 16.0 0.00 0.00 0.00 62 1014.6
20260507143058 57 238 5.0 14.0 0.00 0.00 0.00 65 1014.6
20260507141553 55 264 5.0 11.0 0.00 0.00 0.00 67 1014.7
20260507134545 52 247 4.0 10.0 0.00 0.00 0.00 71 1015.2
20260507133040 51 275 5.0 9.0 0.00 0.00 0.00 74 1015.3
20260507131537 48 237 2.0 9.0 0.00 0.00 0.00 80 1015.5